SCP
0 0 0 0 1 0 0 0 0 0 0 0 0 0 0 0 0 0 0 0 0 0 0 0 0 0 0 0 0 0 0 0 0 0 0 0 0 0 0 0 0 0 0
0 0 0 0 0 0 0 0 0 0 0 0 0 0 0 0 0 0 0 0 0 0 0 0 0 0 0 0 0 0 0 0 0 0 0 0 0 0 0 0 0 0 0
0 0 0 0 0 0 0 0 0 0 0 0 0 0 0 0 0 0 0 0 0 0 0 0 0 0 0 0 0 0 0 0 0 0 0 0 0 0 0 0 0 0 0
0 0 -0 -0 0 0 0 0 0 0 0 0 0 0 0 0 0 0 0 0 0 0 0 0 0 0 0 0 0 0 0 0 0 0 0 0 0 0 0 0 0 0 0
0 0 -0 -0 0 0 0 0 0 1 0 0 0 0 0 0 0 0 0 0 0 0 0 0 0 0 0 0 0 0 0 0 0 0 0 0 0 0 0 0 0 0 0
0 0 0 0 0 0 0 0 0 0 0 0 0 0 0 0 0 0 0 0 0 0 0 0 0 0 0 0 0 0 0 0 0 0 0 0 0 0 0 0 0 0 0
0 0 0 0 0 0 0 0 0 0 0 0 0 0 0 0 0 0 0 0 0 0 0 0 0 0 0 0 0 0 0 0 0 0 0 0 0 0 0 0 0 0 0
0 0 0 0 0 0 0 0 0 0 0 0 0 0 0 0 0 0 0 0 0 0 0 0 -0 0 0 0 0 0 0 0 0 0 0 0 0 0 0 0 0 0 0
-0 0 0 -0 0 0 -0 0 0 -0 0 0 0 0 0 0 0 0 0 0 0 0 0 0 -0 0 0 0 0 0 0 0 0 0 0 0 0 0 0 0 0 0 0
0 0 0 0 -0 0 -0 0 0 0 0 0 0 0 0 0 0 0 0 0 0 0 -0 -0 -0 0 0 0 0 0 0 0 0 0 0 0 0 0 0 0 0 0 0
0 0 0 0 -0 -0 0 -0 0 0 0 0 0 0 0 0 0 0 0 0 0 0 0 0 0 0 0 0 0 0 0 0 0 0 0 0 0 0 0 0 0 0 0
0 0 0 0 -0 -0 0 0 0 0 0 0 0 0 0 0 0 0 0 0 0 0 0 0 0 0 0 0 0 0 0 0 0 0 0 0 0 0 0 0 0 0 0
0 0 0 0 -0 0 0 0 0 0 0 0 0 0 0 0 0 0 0 0 0 0 0 0 0 0 0 0 0 0 0 0 0 0 0 0 0 0 0 0 0 0 0
0 0 0 0 0 -0 0 0 0 0 0 0 0 0 0 0 0 0 0 0 0 0 0 0 0 0 0 0 0 0 0 0 0 0 0 0 0 0 0 0 0 0 0
0 0 0 0 0 0 -0 0 0 0 0 0 0 0 0 0 0 0 0 0 0 0 0 0 0 0 0 0 0 0 0 0 0 0 0 0 0 0 0 0 0 0 0
0 0 0 0 0 0 0 0 0 0 0 0 0 0 0 0 0 0 0 0 0 0 0 0 0 0 0 0 0 0 0 0 0 0 0 0 0 0 0 0 0 0 0
0 0 0 0 0 0 0 0 0 0 0 0 0 0 0 0 0 0 0 0 0 0 0 0 0 0 0 0 0 0 0 0 0 0 0 0 0 0 0 0 0 0 0
0 0 0 0 0 0 0 0 0 0 0 0 0 0 0 0 0 0 0 0 0 0 0 0 0 0 0 0 0 0 0 0 0 0 0 0 0 0 0 0 0 0 0
0 0 0 0 0 0 0 0 0 0 0 0 0 0 0 0 0 0 0 0 0 0 0 0 0 0 0 0 0 0 0 0 0 0 0 0 0 0 0 0 0 0 0
0 0 0 0 0 0 0 0 0 0 0 0 0 0 0 0 0 0 0 0 0 0 0 0 0 0 0 0 0 0 0 0 0 0 0 0 0 0 0 0 0 0 0
0 0 0 0 0 0 0 0 0 0 0 0 0 0 0 0 0 0 0 0 0 0 0 0 0 0 0 0 0 0 0 0 0 0 0 0 0 0 0 0 0 0 0
0 0 0 0 0 0 0 0 0 0 0 0 0 0 0 0 0 0 0 0 0 0 0 0 0 0 0 0 0 0 0 0 0 -0 0 0 0 0 0 0 0 0 0
0 0 0 0 0 0 0 0 0 0 0 0 0 0 0 0 0 0 0 0 0 0 0 0 0 0 0 -0 -0 -0 -0 -0 -0 0 0 0 0 0 0 0 0 0 0
-0 0 0 0 0 0 0 0 0 0 0 0 0 0 0 0 0 0 0 0 0 0 0 0 0 0 -0 -0 -0 -0 -0 -0 -0 -0 0 0 0 0 0 0 0 0 0
-0 0 0 0 0 0 0 0 0 0 0 0 0 0 0 0 0 0 0 0 0 0 0 0 0 0 -0 -0 -0 -0 -0 -0 -0 -0 -0 0 0 0 0 0 0 0 0
0 -0 0 0 0 0 0 0 0 0 0 0 0 0 0 0 0 0 0 0 0 0 0 0 0 0 0 0 0 -0 -0 -0 -0 -0 -0 -0 0 0 0 0 0 0 0
Wind_Speed_500mb
13 24 31 25 52 56 74 76 74 50 72 77 72 72 74 67 68 63 53 42 35 33 36 31 27 22 15 7 1 4 8 11 15 16 18 23 27 29 29 33 38 40 40
33 27 33 49 45 57 61 58 69 65 88 87 83 63 66 75 71 67 61 52 47 47 41 42 39 34 25 17 8 5 10 14 20 18 15 17 23 29 34 35 36 37 39
40 50 40 34 47 65 70 78 76 75 53 72 85 73 66 68 63 70 67 61 56 51 46 48 47 40 32 22 14 12 13 16 21 19 19 21 24 31 33 34 35 32 32
35 50 61 39 34 47 57 65 60 66 83 88 103 81 81 73 70 65 68 71 62 57 50 53 51 49 40 31 24 17 17 19 22 19 19 21 28 34 39 43 40 40 37
35 34 50 49 40 33 49 55 51 63 62 63 78 85 91 90 68 65 64 69 72 64 56 55 54 52 44 38 34 27 23 24 24 23 23 26 31 36 40 44 47 48 44
35 37 39 45 43 43 33 48 47 58 60 70 79 75 95 103 100 65 60 72 70 66 63 65 59 55 51 45 42 36 32 28 29 28 29 30 34 39 41 43 47 53 55
31 29 33 39 40 38 38 44 42 54 57 64 75 75 85 81 87 94 81 77 80 69 66 80 60 58 55 53 48 46 42 35 34 32 31 33 38 40 44 45 45 48 50
24 30 27 27 34 35 39 42 53 53 52 48 50 55 58 64 55 57 70 80 74 90 86 79 72 66 63 58 54 51 47 41 36 35 33 35 39 43 41 41 42 42 39
17 20 30 36 34 34 42 44 40 45 44 48 45 45 46 55 34 48 53 84 78 92 82 79 51 60 63 60 59 53 52 47 38 39 36 38 42 39 36 37 35 33 30
20 29 33 41 42 45 43 43 42 42 43 43 50 56 52 48 68 59 60 71 73 81 79 62 65 60 61 64 65 58 55 52 42 42 39 38 40 32 30 32 32 30 28
19 31 39 36 39 45 45 48 41 40 36 49 49 36 38 34 38 42 56 70 81 85 86 86 72 63 62 67 66 62 55 48 46 43 39 39 35 29 31 32 31 31 30
18 24 31 36 38 38 42 46 39 35 35 28 32 33 32 35 37 39 56 60 79 96 87 84 77 66 64 67 68 62 56 52 48 44 42 38 31 29 31 34 35 34 36
25 22 28 34 35 36 35 36 32 29 32 29 29 31 33 36 38 39 40 40 46 62 72 73 52 56 66 69 66 63 57 52 45 46 43 34 29 32 37 40 39 37 43
25 26 29 29 31 34 35 32 30 30 24 23 25 30 36 36 38 43 40 43 49 64 72 62 53 56 67 71 71 69 58 50 46 46 41 34 36 38 41 43 44 45 47
30 28 31 25 26 32 33 22 21 22 27 19 20 19 17 21 25 34 31 33 35 49 62 78 72 66 76 70 69 63 53 48 45 41 39 39 40 43 43 46 49 43 40
36 38 33 26 21 27 28 19 13 16 21 21 11 14 16 14 19 19 16 15 22 27 41 65 73 69 71 63 43 39 40 40 41 37 40 41 43 47 51 52 45 34 37
38 40 35 29 22 24 27 20 8 4 5 4 21 23 19 19 18 17 10 4 6 12 28 44 52 54 58 55 38 31 19 24 30 42 44 51 54 53 52 48 32 30 32
34 37 35 30 20 15 21 24 20 14 9 5 8 10 12 13 13 10 3 3 7 12 16 22 28 29 31 33 40 42 36 48 44 52 50 52 52 53 51 43 27 30 31
30 34 34 26 19 16 20 23 28 20 20 15 13 11 11 13 14 12 11 10 9 16 18 19 19 20 21 25 28 31 36 40 43 48 49 47 44 43 42 32 28 29 34
32 34 33 35 30 30 28 28 27 27 21 16 15 14 16 17 15 14 11 10 13 11 8 10 13 16 16 16 20 27 28 29 32 32 34 37 36 32 27 26 28 33 31
36 37 33 33 33 31 30 26 25 31 20 18 19 13 8 6 12 17 17 11 9 10 10 7 5 7 8 11 13 17 20 23 28 33 31 30 25 25 25 29 31 32 31
27 34 36 40 35 37 35 27 24 23 23 19 13 10 17 14 9 11 17 17 14 12 9 4 1 4 5 7 12 20 24 26 32 35 32 31 31 32 31 32 33 32 32
26 22 29 40 45 44 36 37 35 27 24 18 19 20 12 12 19 23 22 16 12 6 7 4 5 8 8 10 13 17 23 27 29 25 26 27 32 33 34 33 31 30 34
23 26 32 44 50 45 46 47 39 40 37 27 20 18 23 28 26 20 18 12 10 13 14 12 13 13 12 13 14 20 25 28 29 19 14 15 22 27 32 30 32 32 33
34 31 37 59 63 59 53 47 47 41 35 35 34 32 31 29 24 15 16 14 14 17 19 14 12 12 17 19 23 28 31 29 26 19 13 10 8 11 18 25 26 25 24
55 51 54 52 44 47 50 51 45 44 45 44 36 27 23 20 16 16 18 17 19 23 22 23 23 23 27 28 29 30 34 34 31 27 21 13 9 11 17 20 21 20 19
Wind_Direction_500mb
287 267 264 230 242 247 250 237 231 237 253 257 242 238 239 238 233 231 225 219 219 230 233 229 223 212 201 191 148 10 10 2 343 333 310 311 319 324 329 332 328 316 319
10 330 295 274 243 240 238 245 227 257 238 236 224 239 248 237 237 238 233 226 220 223 228 236 229 219 211 214 217 291 327 340 347 336 332 325 325 329 339 338 327 327 328
5 358 336 311 268 251 242 246 250 246 238 230 228 241 246 243 239 239 240 234 227 226 227 235 232 230 228 223 224 254 291 322 333 341 335 339 341 338 340 336 328 331 328
356 355 351 335 296 261 254 258 251 247 245 245 238 240 238 247 247 231 237 241 235 231 229 237 234 239 239 240 242 255 280 300 319 329 328 338 342 340 338 335 333 335 340
332 336 345 342 335 261 252 261 260 247 253 244 238 250 240 242 246 239 242 240 241 237 234 241 243 241 240 243 251 257 270 287 306 315 315 336 338 338 336 331 330 332 340
331 316 338 342 337 325 276 254 251 254 246 255 254 245 243 245 250 256 253 238 236 239 237 238 241 243 242 244 248 255 263 276 287 298 310 329 336 334 331 326 326 331 337
316 316 309 321 336 320 291 265 258 256 259 264 263 253 247 249 245 250 266 246 224 239 240 240 242 245 244 244 246 251 259 268 279 296 307 323 327 324 323 323 325 325 325
299 304 324 311 315 329 315 277 263 253 260 280 268 256 263 256 249 262 266 251 226 222 235 245 246 244 243 243 243 248 258 263 274 286 298 313 315 316 319 318 322 324 324
299 304 308 318 315 319 322 319 297 270 267 260 258 247 230 235 236 222 231 207 215 230 245 242 243 246 238 243 244 246 254 259 270 281 293 309 313 313 314 319 322 323 325
295 305 305 306 313 313 313 315 315 288 264 245 249 255 256 248 234 213 213 222 235 236 249 246 247 255 244 241 243 245 253 257 263 274 289 301 303 300 304 313 317 317 318
281 294 305 309 312 309 310 305 307 305 284 246 251 262 267 263 264 262 248 242 236 238 245 249 247 247 241 238 240 247 254 256 262 270 282 292 287 289 295 302 306 304 305
276 290 304 307 322 316 311 308 305 307 287 256 253 254 257 256 260 264 260 253 240 241 249 250 246 239 235 233 235 244 248 252 259 270 278 277 276 283 289 296 297 297 297
262 277 292 302 313 328 316 309 318 314 299 257 250 248 243 245 246 247 250 251 248 247 248 249 247 232 237 233 235 238 243 250 259 270 273 268 277 280 287 293 294 294 298
258 254 271 284 305 319 324 314 316 316 297 272 248 249 250 246 248 244 240 241 239 244 241 241 231 244 238 233 231 236 240 245 255 264 266 269 276 280 288 289 296 302 299
250 245 255 267 293 313 324 311 324 322 290 267 255 251 254 265 272 267 253 258 259 253 244 236 232 236 214 216 226 231 231 243 252 257 264 269 273 278 283 289 297 294 294
246 234 237 250 275 303 296 292 316 325 311 281 256 241 233 252 257 269 263 255 271 279 250 232 228 222 214 217 219 232 227 237 250 257 266 268 273 279 285 289 290 279 293
240 232 222 251 266 290 275 258 250 308 26 108 95 109 116 122 110 92 81 68 256 257 222 207 205 207 213 213 211 224 231 246 261 268 271 281 278 282 282 281 280 276 284
222 230 229 237 244 278 267 247 246 260 245 158 109 89 94 90 99 116 149 213 224 226 224 234 231 229 230 233 229 237 252 261 264 275 277 276 279 278 275 275 259 273 269
224 227 227 228 235 255 250 236 248 246 249 234 221 202 167 184 189 189 214 216 226 224 213 216 221 226 234 242 258 257 257 264 268 271 276 279 281 276 273 256 247 257 270
240 233 233 238 240 233 227 238 235 234 235 228 193 176 180 181 175 169 153 148 145 161 177 215 238 252 260 261 269 274 273 281 284 281 280 281 276 265 247 240 249 263 273
241 233 226 222 220 215 207 214 221 227 217 173 148 141 140 152 142 138 139 156 161 154 154 169 206 242 257 271 277 291 302 301 299 284 278 267 256 244 243 249 261 271 280
245 236 226 220 211 198 183 170 162 155 153 153 141 125 127 137 148 144 131 130 125 115 112 116 219 313 321 306 308 320 327 316 308 299 282 267 255 248 249 257 263 275 274
233 224 209 200 190 172 169 159 153 145 148 157 144 153 138 131 133 131 127 126 109 84 69 78 349 334 338 325 305 309 326 322 319 298 279 263 252 253 251 256 263 269 268
208 190 188 179 166 162 157 152 144 134 128 128 138 146 134 125 123 125 114 76 40 39 43 29 8 358 5 360 346 338 337 339 340 334 308 268 251 253 254 257 263 271 275
142 157 153 141 142 137 135 133 134 131 132 129 133 127 124 128 133 120 87 71 57 63 64 55 45 32 38 33 21 15 10 9 9 16 16 354 311 274 271 271 270 270 274
127 131 142 138 137 140 138 137 136 137 133 130 128 127 118 120 104 87 86 76 75 76 78 73 62 52 47 42 38 32 29 31 33 27 26 23 351 314 300 289 283 277 280
Wind_Speed_850mb
13 24 31 25 52 56 74 76 74 50 72 77 72 72 74 67 68 63 53 42 35 33 36 31 27 22 15 7 1 4 8 11 15 16 18 23 27 29 29 33 38 40 40
33 27 33 49 45 57 61 58 69 65 88 87 83 63 66 75 71 67 61 52 47 47 41 42 39 34 25 17 8 5 10 14 20 18 15 17 23 29 34 35 36 37 39
40 50 40 34 47 65 70 78 76 75 53 72 85 73 66 68 63 70 67 61 56 51 46 48 47 40 32 22 14 12 13 16 21 19 19 21 24 31 33 34 35 32 32
35 50 61 39 34 47 57 65 60 66 83 88 103 81 81 73 70 65 68 71 62 57 50 53 51 49 40 31 24 17 17 19 22 19 19 21 28 34 39 43 40 40 37
35 34 50 49 40 33 49 55 51 63 62 63 78 85 91 90 68 65 64 69 72 64 56 55 54 52 44 38 34 27 23 24 24 23 23 26 31 36 40 44 47 48 44
35 37 39 45 43 43 33 48 47 58 60 70 79 75 95 103 100 65 60 72 70 66 63 65 59 55 51 45 42 36 32 28 29 28 29 30 34 39 41 43 47 53 55
31 29 33 39 40 38 38 44 42 54 57 64 75 75 85 81 87 94 81 77 80 69 66 80 60 58 55 53 48 46 42 35 34 32 31 33 38 40 44 45 45 48 50
24 30 27 27 34 35 39 42 53 53 52 48 50 55 58 64 55 57 70 80 74 90 86 79 72 66 63 58 54 51 47 41 36 35 33 35 39 43 41 41 42 42 39
17 20 30 36 34 34 42 44 40 45 44 48 45 45 46 55 34 48 53 84 78 92 82 79 51 60 63 60 59 53 52 47 38 39 36 38 42 39 36 37 35 33 30
20 29 33 41 42 45 43 43 42 42 43 43 50 56 52 48 68 59 60 71 73 81 79 62 65 60 61 64 65 58 55 52 42 42 39 38 40 32 30 32 32 30 28
19 31 39 36 39 45 45 48 41 40 36 49 49 36 38 34 38 42 56 70 81 85 86 86 72 63 62 67 66 62 55 48 46 43 39 39 35 29 31 32 31 31 30
18 24 31 36 38 38 42 46 39 35 35 28 32 33 32 35 37 39 56 60 79 96 87 84 77 66 64 67 68 62 56 52 48 44 42 38 31 29 31 34 35 34 36
25 22 28 34 35 36 35 36 32 29 32 29 29 31 33 36 38 39 40 40 46 62 72 73 52 56 66 69 66 63 57 52 45 46 43 34 29 32 37 40 39 37 43
25 26 29 29 31 34 35 32 30 30 24 23 25 30 36 36 38 43 40 43 49 64 72 62 53 56 67 71 71 69 58 50 46 46 41 34 36 38 41 43 44 45 47
30 28 31 25 26 32 33 22 21 22 27 19 20 19 17 21 25 34 31 33 35 49 62 78 72 66 76 70 69 63 53 48 45 41 39 39 40 43 43 46 49 43 40
36 38 33 26 21 27 28 19 13 16 21 21 11 14 16 14 19 19 16 15 22 27 41 65 73 69 71 63 43 39 40 40 41 37 40 41 43 47 51 52 45 34 37
38 40 35 29 22 24 27 20 8 4 5 4 21 23 19 19 18 17 10 4 6 12 28 44 52 54 58 55 38 31 19 24 30 42 44 51 54 53 52 48 32 30 32
34 37 35 30 20 15 21 24 20 14 9 5 8 10 12 13 13 10 3 3 7 12 16 22 28 29 31 33 40 42 36 48 44 52 50 52 52 53 51 43 27 30 31
30 34 34 26 19 16 20 23 28 20 20 15 13 11 11 13 14 12 11 10 9 16 18 19 19 20 21 25 28 31 36 40 43 48 49 47 44 43 42 32 28 29 34
32 34 33 35 30 30 28 28 27 27 21 16 15 14 16 17 15 14 11 10 13 11 8 10 13 16 16 16 20 27 28 29 32 32 34 37 36 32 27 26 28 33 31
36 37 33 33 33 31 30 26 25 31 20 18 19 13 8 6 12 17 17 11 9 10 10 7 5 7 8 11 13 17 20 23 28 33 31 30 25 25 25 29 31 32 31
27 34 36 40 35 37 35 27 24 23 23 19 13 10 17 14 9 11 17 17 14 12 9 4 1 4 5 7 12 20 24 26 32 35 32 31 31 32 31 32 33 32 32
26 22 29 40 45 44 36 37 35 27 24 18 19 20 12 12 19 23 22 16 12 6 7 4 5 8 8 10 13 17 23 27 29 25 26 27 32 33 34 33 31 30 34
23 26 32 44 50 45 46 47 39 40 37 27 20 18 23 28 26 20 18 12 10 13 14 12 13 13 12 13 14 20 25 28 29 19 14 15 22 27 32 30 32 32 33
34 31 37 59 63 59 53 47 47 41 35 35 34 32 31 29 24 15 16 14 14 17 19 14 12 12 17 19 23 28 31 29 26 19 13 10 8 11 18 25 26 25 24
55 51 54 52 44 47 50 51 45 44 45 44 36 27 23 20 16 16 18 17 19 23 22 23 23 23 27 28 29 30 34 34 31 27 21 13 9 11 17 20 21 20 19
Wind_Direction_850mb
287 267 264 230 242 247 250 237 231 237 253 257 242 238 239 238 233 231 225 219 219 230 233 229 223 212 201 191 148 10 10 2 343 333 310 311 319 324 329 332 328 316 319
10 330 295 274 243 240 238 245 227 257 238 236 224 239 248 237 237 238 233 226 220 223 228 236 229 219 211 214 217 291 327 340 347 336 332 325 325 329 339 338 327 327 328
5 358 336 311 268 251 242 246 250 246 238 230 228 241 246 243 239 239 240 234 227 226 227 235 232 230 228 223 224 254 291 322 333 341 335 339 341 338 340 336 328 331 328
356 355 351 335 296 261 254 258 251 247 245 245 238 240 238 247 247 231 237 241 235 231 229 237 234 239 239 240 242 255 280 300 319 329 328 338 342 340 338 335 333 335 340
332 336 345 342 335 261 252 261 260 247 253 244 238 250 240 242 246 239 242 240 241 237 234 241 243 241 240 243 251 257 270 287 306 315 315 336 338 338 336 331 330 332 340
331 316 338 342 337 325 276 254 251 254 246 255 254 245 243 245 250 256 253 238 236 239 237 238 241 243 242 244 248 255 263 276 287 298 310 329 336 334 331 326 326 331 337
316 316 309 321 336 320 291 265 258 256 259 264 263 253 247 249 245 250 266 246 224 239 240 240 242 245 244 244 246 251 259 268 279 296 307 323 327 324 323 323 325 325 325
299 304 324 311 315 329 315 277 263 253 260 280 268 256 263 256 249 262 266 251 226 222 235 245 246 244 243 243 243 248 258 263 274 286 298 313 315 316 319 318 322 324 324
299 304 308 318 315 319 322 319 297 270 267 260 258 247 230 235 236 222 231 207 215 230 245 242 243 246 238 243 244 246 254 259 270 281 293 309 313 313 314 319 322 323 325
295 305 305 306 313 313 313 315 315 288 264 245 249 255 256 248 234 213 213 222 235 236 249 246 247 255 244 241 243 245 253 257 263 274 289 301 303 300 304 313 317 317 318
281 294 305 309 312 309 310 305 307 305 284 246 251 262 267 263 264 262 248 242 236 238 245 249 247 247 241 238 240 247 254 256 262 270 282 292 287 289 295 302 306 304 305
276 290 304 307 322 316 311 308 305 307 287 256 253 254 257 256 260 264 260 253 240 241 249 250 246 239 235 233 235 244 248 252 259 270 278 277 276 283 289 296 297 297 297
262 277 292 302 313 328 316 309 318 314 299 257 250 248 243 245 246 247 250 251 248 247 248 249 247 232 237 233 235 238 243 250 259 270 273 268 277 280 287 293 294 294 298
258 254 271 284 305 319 324 314 316 316 297 272 248 249 250 246 248 244 240 241 239 244 241 241 231 244 238 233 231 236 240 245 255 264 266 269 276 280 288 289 296 302 299
250 245 255 267 293 313 324 311 324 322 290 267 255 251 254 265 272 267 253 258 259 253 244 236 232 236 214 216 226 231 231 243 252 257 264 269 273 278 283 289 297 294 294
246 234 237 250 275 303 296 292 316 325 311 281 256 241 233 252 257 269 263 255 271 279 250 232 228 222 214 217 219 232 227 237 250 257 266 268 273 279 285 289 290 279 293
240 232 222 251 266 290 275 258 250 308 26 108 95 109 116 122 110 92 81 68 256 257 222 207 205 207 213 213 211 224 231 246 261 268 271 281 278 282 282 281 280 276 284
222 230 229 237 244 278 267 247 246 260 245 158 109 89 94 90 99 116 149 213 224 226 224 234 231 229 230 233 229 237 252 261 264 275 277 276 279 278 275 275 259 273 269
224 227 227 228 235 255 250 236 248 246 249 234 221 202 167 184 189 189 214 216 226 224 213 216 221 226 234 242 258 257 257 264 268 271 276 279 281 276 273 256 247 257 270
240 233 233 238 240 233 227 238 235 234 235 228 193 176 180 181 175 169 153 148 145 161 177 215 238 252 260 261 269 274 273 281 284 281 280 281 276 265 247 240 249 263 273
241 233 226 222 220 215 207 214 221 227 217 173 148 141 140 152 142 138 139 156 161 154 154 169 206 242 257 271 277 291 302 301 299 284 278 267 256 244 243 249 261 271 280
245 236 226 220 211 198 183 170 162 155 153 153 141 125 127 137 148 144 131 130 125 115 112 116 219 313 321 306 308 320 327 316 308 299 282 267 255 248 249 257 263 275 274
233 224 209 200 190 172 169 159 153 145 148 157 144 153 138 131 133 131 127 126 109 84 69 78 349 334 338 325 305 309 326 322 319 298 279 263 252 253 251 256 263 269 268
208 190 188 179 166 162 157 152 144 134 128 128 138 146 134 125 123 125 114 76 40 39 43 29 8 358 5 360 346 338 337 339 340 334 308 268 251 253 254 257 263 271 275
142 157 153 141 142 137 135 133 134 131 132 129 133 127 124 128 133 120 87 71 57 63 64 55 45 32 38 33 21 15 10 9 9 16 16 354 311 274 271 271 270 270 274
127 131 142 138 137 140 138 137 136 137 133 130 128 127 118 120 104 87 86 76 75 76 78 73 62 52 47 42 38 32 29 31 33 27 26 23 351 314 300 289 283 277 280